Location: Ward Pound Ridge Reservation
(41.2500°N, 73.6000°W)
Time: 03:55:13
(UTC-04:00)

Vanguard 1 - Visible Passes

Search period start: 23 October 2017 00:00
Search period end: 02 November 2017 00:00
Orbit: 650 x 3834 km, 34.3° (Epoch: 21 October)

Date Brightness Start Highest point End Pass type
(mag) Time Alt. Az. Time Alt. Az. Time Alt. Az.
23 Oct 12.6 02:29:55 60° SE 02:29:55 60° SE 02:48:35 10° E visible
23 Oct 12.6 04:42:38 40° WSW 04:51:39 63° SSW 05:14:38 10° SE visible
24 Oct 13.6 00:37:06 20° E 00:37:06 20° E 00:42:12 10° E visible
24 Oct 12.5 02:49:50 66° SE 02:49:50 66° SE 03:10:12 10° ESE visible
24 Oct 12.8 05:02:33 34° W 05:13:01 57° SSW 05:35:30 10° SE visible
25 Oct 13.5 00:57:03 25° E 00:57:03 25° E 01:04:00 10° E visible
25 Oct 12.4 03:09:46 67° S 03:09:46 67° S 03:31:43 10° ESE visible
25 Oct 12.9 05:22:30 28° W 05:34:16 51° SSW 05:56:06 10° SE visible
26 Oct 13.3 01:17:02 29° E 01:17:02 29° E 01:25:45 10° E visible
26 Oct 12.4 03:29:46 65° SSW 03:30:13 65° SSW 03:53:06 10° ESE visible
26 Oct 13.1 05:42:30 22° W 05:55:27 44° SSW 06:16:22 10° SSE visible
27 Oct 13.2 01:37:04 34° ESE 01:37:04 34° ESE 01:47:28 10° E visible
27 Oct 12.4 03:49:48 59° SW 03:51:36 60° SSW 04:14:16 10° SE visible
27 Oct 13.2 06:02:32 17° W 06:16:31 37° SW 06:36:12 10° SSE visible
28 Oct 13.1 01:57:08 39° ESE 01:57:08 39° ESE 02:09:08 10° ESE visible
28 Oct 12.5 04:09:52 52° SW 04:12:57 55° SSW 04:35:11 10° SE visible
28 Oct 13.4 06:22:36 12° W 06:37:29 30° SW 06:55:30 10° S visible
29 Oct 12.9 02:17:14 43° SE 02:17:14 43° SE 02:30:41 10° ESE visible
29 Oct 12.6 04:29:58 44° SW 04:34:13 48° SSW 04:55:48 10° SE visible
29 Oct 13.5 06:44:15 10° W 06:58:24 23° SW 07:14:01 10° S visible
30 Oct 14.0 00:24:37 10° E 00:24:37 10° E 00:24:38 10° E visible
30 Oct 12.8 02:37:22 46° SE 02:37:22 46° SE 02:52:05 10° ESE visible
30 Oct 12.8 04:50:06 36° WSW 04:55:27 41° SSW 05:16:02 10° SSE visible
31 Oct 13.9 00:44:46 13° E 00:44:46 13° E 00:46:19 10° E visible
31 Oct 12.8 02:57:31 47° SSE 02:57:31 47° SSE 03:13:16 10° SE visible
31 Oct 12.9 05:10:16 29° WSW 05:16:36 34° SW 05:35:49 10° SSE visible
01 Nov 13.8 01:04:57 16° ESE 01:04:57 16° ESE 01:07:56 10° ESE visible
01 Nov 12.8 03:17:42 46° S 03:17:42 46° S 03:34:11 10° SE visible
01 Nov 13.1 05:30:27 22° WSW 05:37:42 28° SW 05:55:00 10° S visible
